Location: Anankanda
(14.7841°N, 3.0348°W)
Time: 01:49:55
(UTC+00:00)

Cosmos 1844 - Pass Details

Date: 17 January 2021
Orbit: 821 x 869 km, 70.9° (Epoch: 07 March)

Event Time Altitude Azimuth Distance (km) Brightness Sun altitude
Rises 18:17:53 0° 184° (S) 3,345 7.2 -4.1°
Reaches altitude 10° 18:20:22 10° 179° (S) 2,417 6.4 -4.7°
Maximum altitude 18:25:42 51° 105° (ESE) 1,039 3.9 -5.9°
Drops below altitude 10° 18:31:07 10° 30° (NNE) 2,446 5.7 -7.1°
Sets 18:33:37 0° 25° (NNE) 3,388 6.4 -7.7°
